Location: Barrialito
(10.3588°N, 66.9747°W)
Time: 01:17:51
(UTC+00:00)

H-2A R/B - Visible Passes

Search period start: 30 June 2022 00:00
Search period end: 10 July 2022 00:00
Orbit: 734 x 835 km, 98.2° (Epoch: 29 June)

Date Brightness Start Highest point End Pass type
(mag) Time Alt. Az. Time Alt. Az. Time Alt. Az.
01 Jul 4.0 09:46:11 10° NE 09:50:31 29° E 09:54:47 10° SSE visible
02 Jul 4.9 09:17:36 10° ENE 09:19:25 12° E 09:21:13 10° ESE visible
05 Jul 4.7 09:22:56 10° ENE 09:25:36 15° E 09:28:16 10° SE visible
06 Jul 4.8 23:09:42 10° SW 23:13:30 20° W 23:17:20 10° NW visible
08 Jul 4.6 09:28:32 10° ENE 09:31:48 18° E 09:35:01 10° SE visible
09 Jul 4.9 23:16:27 10° SW 23:19:44 16° W 23:23:01 10° WNW visible
